Total_Precipitation_Accumulation
2.00 1.99 2.01 1.93 1.94 1.96 2.11 2.23 2.27 2.06 1.80 1.52 1.33 1.20 1.25 1.26 1.46 1.34 1.13 1.18 1.10 1.02 0.99 0.97 1.08 1.26 1.49 1.59 1.69 1.84 2.02 2.14 2.15 2.03 1.97 1.99 2.08 2.21
1.76 1.80 1.84 1.81 1.90 1.92 2.01 2.12 2.12 2.07 1.91 1.61 1.41 1.32 1.34 1.22 1.35 1.24 1.26 1.42 1.23 1.08 1.00 0.97 0.99 1.08 1.15 1.17 1.18 1.18 1.22 1.28 1.32 1.43 1.50 1.57 1.63 1.78
1.44 1.49 1.55 1.54 1.70 1.74 1.85 1.95 2.00 1.97 1.76 1.53 1.39 1.40 1.41 1.39 1.36 1.26 1.27 1.29 1.21 1.11 0.97 0.88 0.90 0.97 1.02 1.07 1.07 1.03 1.03 0.96 0.99 1.09 1.21 1.31 1.31 1.34
1.29 1.34 1.33 1.34 1.46 1.54 1.62 1.71 1.85 1.91 1.82 1.63 1.46 1.36 1.25 1.29 1.44 1.47 1.44 1.34 1.33 1.38 1.26 1.10 1.02 0.99 0.94 1.00 1.08 1.04 1.01 0.93 0.84 0.91 1.03 1.14 1.22 1.26
0.99 1.02 1.06 1.16 1.33 1.38 1.39 1.50 1.67 1.74 1.84 1.71 1.56 1.45 1.28 1.25 1.43 1.41 1.44 1.62 1.52 1.58 1.70 1.51 1.27 1.11 0.98 1.01 1.08 1.07 0.99 0.95 0.83 0.84 1.00 1.08 1.12 1.15
0.88 0.86 0.85 0.91 1.05 1.20 1.28 1.45 1.62 1.77 1.84 1.76 1.68 1.62 1.50 1.39 1.48 1.58 1.60 1.69 1.71 1.53 1.55 1.53 1.49 1.37 1.17 1.04 1.10 1.16 1.14 1.08 1.02 0.97 1.02 1.06 1.09 1.09
0.80 0.83 0.83 0.83 0.86 0.93 0.93 1.13 1.35 1.59 1.70 1.77 1.75 1.74 1.65 1.57 1.49 1.64 1.70 1.79 1.88 1.85 1.71 1.53 1.50 1.35 1.24 1.17 1.12 1.15 1.21 1.21 1.17 1.09 1.06 1.06 1.04 1.07
0.84 0.84 0.80 0.78 0.87 0.87 0.84 0.87 1.02 1.18 1.35 1.47 1.53 1.56 1.60 1.66 1.76 1.78 1.76 1.80 1.83 1.82 1.69 1.69 1.62 1.51 1.35 1.18 1.19 1.21 1.22 1.24 1.21 1.14 1.06 1.01 0.99 1.04
0.85 0.93 0.96 0.86 0.89 0.92 0.96 0.88 0.81 0.85 1.02 1.22 1.32 1.35 1.43 1.50 1.72 1.77 1.79 1.81 1.69 1.70 1.57 1.61 1.55 1.41 1.33 1.29 1.31 1.23 1.24 1.20 1.21 1.17 1.14 1.09 1.03 1.07
0.78 0.87 1.09 1.11 1.00 1.00 1.05 1.09 0.97 0.81 0.82 0.88 1.06 1.22 1.28 1.44 1.77 1.98 1.92 1.70 1.62 1.65 1.53 1.53 1.46 1.32 1.24 1.22 1.29 1.19 1.17 1.14 1.11 1.12 1.10 1.08 1.04 1.05
0.67 0.80 0.94 1.05 1.03 1.02 0.99 1.05 1.06 0.93 0.89 0.92 0.90 1.00 1.16 1.34 1.60 1.89 1.99 1.90 1.68 1.60 1.47 1.37 1.36 1.33 1.34 1.29 1.25 1.25 1.15 1.14 1.13 1.13 1.16 1.16 1.13 1.18
0.53 0.72 0.92 0.89 0.88 0.94 0.98 1.07 1.16 1.00 0.91 0.99 0.95 0.98 1.02 1.24 1.59 1.79 1.93 1.91 1.75 1.67 1.53 1.42 1.39 1.40 1.57 1.50 1.32 1.27 1.20 1.21 1.22 1.19 1.19 1.24 1.31 1.28
0.51 0.63 0.68 0.69 0.71 0.80 0.89 0.96 1.10 1.00 1.01 1.15 1.17 1.11 1.17 1.21 1.33 1.49 1.72 1.88 1.79 1.60 1.48 1.59 1.63 1.53 1.50 1.48 1.43 1.34 1.25 1.17 1.16 1.17 1.18 1.20 1.27 1.26
0.55 0.59 0.58 0.58 0.63 0.69 0.71 0.77 0.93 1.04 1.11 1.26 1.31 1.25 1.18 1.20 1.24 1.29 1.42 1.55 1.57 1.50 1.40 1.35 1.42 1.38 1.30 1.17 1.15 1.21 1.23 1.20 1.15 1.15 1.16 1.28 1.27 1.30
0.54 0.60 0.62 0.64 0.66 0.64 0.66 0.72 0.86 1.03 1.21 1.25 1.16 1.10 1.13 1.16 1.17 1.30 1.38 1.44 1.46 1.44 1.31 1.15 1.14 1.18 1.15 1.06 0.96 0.97 1.08 1.14 1.09 1.06 1.07 1.11 1.13 1.18
0.57 0.62 0.65 0.67 0.65 0.61 0.68 0.79 0.92 1.12 1.20 1.14 1.09 0.97 0.99 1.14 1.19 1.19 1.24 1.25 1.30 1.34 1.22 1.12 1.08 1.08 1.08 1.02 0.96 0.90 0.89 0.96 1.01 1.04 1.04 1.01 1.00 1.03
0.59 0.64 0.68 0.75 0.76 0.79 0.88 0.96 0.96 1.00 1.06 0.99 1.03 0.97 0.93 1.01 1.07 1.06 1.07 1.03 1.02 1.01 1.03 1.01 1.00 1.00 0.98 1.00 1.02 0.94 0.91 0.87 0.87 0.98 1.06 1.04 0.97 0.97
0.65 0.69 0.77 0.85 0.89 0.93 0.98 0.97 0.95 0.95 0.98 0.97 0.99 0.98 0.91 0.91 0.94 0.97 1.01 1.04 1.05 0.98 0.90 0.87 0.86 0.92 0.95 1.00 0.99 0.92 0.93 0.93 0.93 0.97 0.98 0.95 0.86 0.84
0.62 0.72 0.92 0.95 0.90 0.92 0.97 0.95 0.85 0.78 0.80 0.83 0.83 0.83 0.81 0.82 0.87 0.90 0.92 0.99 1.02 0.95 0.92 0.93 0.93 0.95 0.94 0.83 0.74 0.74 0.86 0.90 0.91 0.93 0.94 0.91 0.84 0.79
0.50 0.61 0.78 0.82 0.83 0.87 0.85 0.81 0.75 0.69 0.69 0.68 0.67 0.67 0.70 0.75 0.78 0.83 0.83 0.82 0.89 0.90 0.89 0.90 0.90 0.90 0.93 0.91 0.81 0.69 0.71 0.82 0.86 0.87 0.86 0.87 0.88 0.98
0.48 0.56 0.65 0.71 0.72 0.72 0.72 0.71 0.70 0.70 0.68 0.66 0.66 0.68 0.69 0.72 0.72 0.71 0.75 0.80 0.80 0.79 0.82 0.81 0.81 0.93 0.95 1.01 0.96 0.76 0.66 0.76 0.84 0.83 0.87 0.95 0.92 0.85
0.46 0.48 0.55 0.60 0.63 0.64 0.66 0.68 0.69 0.72 0.70 0.68 0.66 0.68 0.73 0.75 0.74 0.74 0.74 0.75 0.76 0.77 0.77 0.77 0.82 0.92 0.98 1.02 0.93 0.78 0.71 0.72 0.81 0.94 0.95 0.96 0.91 0.84
0.49 0.47 0.49 0.54 0.60 0.66 0.71 0.73 0.71 0.73 0.75 0.73 0.72 0.74 0.76 0.78 0.77 0.77 0.78 0.78 0.77 0.79 0.82 0.85 0.91 1.00 1.03 0.99 0.96 0.89 0.83 0.80 0.81 0.86 0.86 0.94 0.94 0.87